Wind_Speed
19 28 24 25 27 29 36 32 28 30 33 37 36 52 47 49 59 68 85 80 68 75 78 84 64 41 27 39 51 51 47 44 42 38 39 38 36 34 31 28 27 23 24 28
25 32 31 35 24 30 24 32 34 38 41 45 39 43 52 50 54 65 79 85 71 61 76 84 81 69 69 51 59 52 50 50 49 41 47 36 39 35 36 38 33 33 32 29
24 32 31 30 28 28 27 34 25 24 24 32 43 45 44 52 48 61 73 89 74 62 71 76 82 40 46 40 53 54 57 51 48 42 49 47 46 24 30 24 30 23 20 29
32 29 31 25 27 26 22 29 33 31 31 30 36 50 41 52 48 56 63 91 79 64 71 75 76 74 69 63 50 61 63 48 39 41 38 44 28 28 30 23 25 13 15 20
25 27 26 27 29 27 25 27 29 29 30 32 28 43 27 50 47 47 58 79 81 65 76 75 79 74 72 71 71 43 63 56 44 38 35 37 36 25 8 11 15 13 13 15
28 33 27 24 22 22 31 30 34 37 31 29 23 28 29 48 35 37 47 58 82 69 73 73 76 74 75 69 66 56 57 39 62 42 28 28 28 27 21 17 21 18 21 24
24 30 23 23 20 20 32 33 34 39 24 20 10 10 18 30 28 31 35 53 72 72 73 73 76 76 73 64 51 44 54 49 28 34 33 32 31 29 25 25 24 22 26 28
23 25 19 22 19 24 27 32 40 40 33 12 13 7 17 17 22 26 28 45 57 72 83 73 75 74 68 60 48 24 19 25 27 29 31 31 28 27 27 26 23 26 32 32
25 21 28 23 20 25 30 26 38 43 35 13 4 3 22 22 19 22 30 47 55 70 84 78 76 73 72 55 42 32 41 25 29 30 31 31 30 31 31 25 27 32 34 32
26 19 21 18 21 20 23 27 33 41 33 12 6 2 13 29 28 25 34 46 53 56 72 73 75 71 56 46 37 37 32 34 35 37 37 34 30 29 28 29 33 34 28 24
32 26 24 21 19 20 25 30 27 37 39 22 5 3 22 32 31 29 36 43 50 47 42 50 62 59 52 48 41 40 41 41 43 42 38 35 35 33 31 36 39 32 29 28
28 32 24 14 17 18 20 21 29 35 29 29 14 11 17 22 25 26 34 44 44 45 40 36 39 41 48 46 43 44 44 46 46 43 41 39 36 36 36 36 29 31 30 25
25 26 22 19 21 16 18 15 22 26 30 31 18 20 17 20 19 28 35 36 41 46 44 39 34 37 45 46 45 44 45 50 48 48 45 41 39 38 38 38 35 32 20 26
21 25 21 18 18 21 27 23 23 25 24 33 2 12 23 18 20 18 32 35 28 30 53 52 42 40 47 42 45 46 47 47 51 49 44 43 43 44 42 41 35 20 24 25
16 16 19 15 17 19 23 27 23 29 32 37 21 21 29 20 12 15 28 34 38 29 47 51 44 37 40 48 44 41 43 49 57 57 49 50 55 51 40 47 16 17 20 24
18 13 16 12 17 17 19 17 25 40 29 24 19 18 21 15 17 18 22 27 26 30 47 47 42 40 44 47 41 36 47 52 33 50 50 66 58 49 42 13 13 14 21 24
17 8 5 12 11 15 16 16 23 28 32 29 26 20 20 21 23 20 17 22 24 36 46 45 37 32 43 45 39 43 44 48 49 39 47 31 38 32 9 10 13 18 22 25
18 12 10 9 8 12 9 12 14 17 22 23 29 15 14 8 25 18 19 26 33 38 44 40 39 38 46 38 38 38 44 51 43 29 39 37 24 7 7 10 15 20 23 25
16 14 9 7 10 10 12 18 15 10 11 16 15 14 7 10 7 18 21 27 33 35 34 36 39 37 36 26 31 42 29 32 37 21 16 8 6 7 12 15 18 20 23 26
12 14 11 10 10 11 15 12 6 5 7 10 12 10 9 11 11 8 18 23 22 34 22 32 33 27 39 27 32 26 54 34 15 14 8 9 7 14 16 17 18 21 24 27
9 11 12 14 9 11 12 17 4 4 4 6 12 8 8 5 7 11 11 18 26 16 33 22 24 11 11 14 17 15 26 24 23 16 14 10 15 16 16 16 19 22 26 30
11 9 11 12 11 13 14 17 14 11 11 6 8 10 9 8 8 14 11 6 8 13 6 12 14 19 19 24 27 32 29 23 16 12 9 15 16 15 15 18 21 25 26 22
14 11 8 9 10 8 10 10 11 12 11 8 7 12 12 8 10 7 11 5 6 6 4 6 4 5 10 17 24 25 17 13 8 12 16 15 13 14 18 20 24 25 19 16
15 14 14 10 11 10 8 10 12 10 10 7 7 13 13 10 9 13 8 2 9 7 11 14 15 14 15 16 14 12 9 12 15 16 16 15 16 17 18 22 16 14 12 13
16 15 14 16 16 16 13 12 13 10 12 9 10 16 15 14 11 12 11 12 11 13 13 17 18 20 18 16 14 13 16 17 17 18 17 16 16 17 15 11 9 10 12 14
16 18 16 14 16 17 19 15 15 12 8 9 12 12 16 15 15 12 13 12 13 20 17 19 19 21 21 19 18 21 21 20 20 18 15 15 14 12 11 10 9 12 14 15
Wind_Direction
325 318 315 312 292 295 294 268 276 256 259 257 250 242 234 227 214 208 205 202 204 214 216 216 216 207 205 222 217 215 214 217 218 222 220 222 225 230 233 243 244 247 249 261
319 328 316 315 302 306 320 291 271 289 276 270 261 251 233 228 216 211 203 203 195 203 216 220 221 216 240 233 231 214 211 211 217 215 223 214 217 227 232 241 245 254 257 263
323 328 334 327 320 311 304 304 294 289 279 272 263 255 240 225 218 215 203 202 196 199 211 219 221 201 207 226 222 220 214 208 215 209 213 218 221 243 245 240 244 273 260 256
315 323 332 334 336 324 334 303 305 299 283 281 269 267 245 220 214 213 203 201 198 199 209 214 221 226 235 234 236 226 208 217 198 202 205 212 205 224 216 226 234 270 263 238
340 329 331 337 325 331 330 317 317 306 289 279 280 270 224 211 210 209 206 203 199 200 208 215 220 227 232 235 223 217 200 197 198 202 207 193 196 231 229 229 256 253 254 244
337 333 339 330 334 347 357 335 320 330 314 308 317 269 193 198 199 205 208 204 198 202 207 214 221 225 232 234 240 243 237 210 190 171 186 206 213 220 230 235 238 246 238 242
340 336 342 340 338 341 338 345 326 326 345 338 304 209 172 189 198 200 199 201 201 204 210 213 219 224 232 235 239 250 237 241 168 169 193 205 215 226 234 243 250 250 242 241
344 352 341 332 357 351 337 1 9 351 343 329 221 166 181 189 194 202 195 195 199 199 211 217 220 226 231 229 230 213 218 198 189 189 204 213 219 232 243 250 250 247 243 241
356 356 349 348 353 347 7 12 10 5 12 18 329 294 183 189 185 189 190 193 196 198 212 215 220 224 228 229 231 219 216 210 202 202 213 219 223 231 238 244 252 248 241 247
12 351 359 6 12 4 6 356 7 6 10 57 40 83 185 199 193 186 191 185 190 194 211 215 218 223 226 225 212 210 201 206 209 214 215 222 230 240 246 245 243 236 241 258
8 358 351 6 352 358 0 355 355 13 10 30 92 202 200 199 192 186 194 185 185 191 203 206 216 222 219 213 204 203 205 210 210 215 219 226 231 238 244 246 225 238 251 261
6 0 1 1 359 356 1 1 2 4 14 2 19 199 200 204 191 188 193 186 181 187 206 204 196 206 198 200 201 204 209 216 215 220 220 226 231 236 233 228 240 241 260 266
1 5 11 5 358 356 344 344 2 13 12 3 331 211 182 173 177 188 183 190 192 191 204 218 202 192 190 193 195 204 210 217 218 220 219 224 231 225 225 232 238 247 261 269
357 357 4 359 348 337 11 6 356 350 5 4 122 200 180 187 197 179 192 188 189 206 194 207 209 199 196 193 197 210 211 219 225 218 220 225 224 224 224 232 228 246 259 266
356 353 1 347 334 338 323 354 10 25 13 11 6 182 186 200 176 189 193 194 197 205 199 198 202 191 193 199 204 214 222 226 222 211 212 225 220 219 229 233 231 253 268 275
342 338 357 1 332 341 336 325 358 0 15 13 14 187 179 179 185 182 186 201 196 192 191 192 202 192 195 197 199 212 224 226 229 198 209 211 212 217 224 221 258 281 279 278
330 327 336 350 347 340 327 319 348 360 12 21 49 182 197 198 193 168 173 174 187 185 185 199 198 194 195 199 207 216 218 228 240 201 199 217 212 213 191 261 275 274 272 274
327 324 310 336 335 325 314 329 343 341 359 7 13 54 197 14 163 172 172 176 184 191 196 205 213 202 200 212 206 224 225 234 236 197 206 215 206 182 241 266 263 263 270 281
336 332 343 3 10 14 4 341 315 333 359 16 24 12 330 329 140 190 198 188 196 194 202 208 218 226 215 196 202 203 215 183 191 170 164 149 220 266 262 250 255 269 284 296
311 331 335 354 358 11 7 349 15 309 337 331 352 347 337 334 301 311 224 215 229 199 174 218 222 228 232 216 209 218 220 253 240 172 160 232 258 258 255 257 272 282 293 298
341 333 333 338 346 351 4 14 24 358 342 298 309 327 294 307 289 263 291 285 248 233 236 196 161 224 203 238 229 205 178 187 177 182 207 234 242 242 251 267 278 290 293 294
299 325 324 326 323 350 1 6 7 353 9 9 288 305 279 265 277 269 274 340 301 280 329 211 179 167 158 156 160 178 180 187 190 206 224 236 237 245 261 274 281 287 290 291
295 283 296 297 314 319 354 343 354 348 325 336 298 271 271 258 250 262 263 231 91 128 138 245 249 252 208 169 178 188 183 188 197 226 234 236 250 258 268 278 287 288 289 294
312 297 281 257 258 276 301 308 323 315 322 300 274 235 249 252 241 244 233 233 220 180 178 193 197 198 206 210 205 192 179 193 212 220 228 235 247 263 280 283 280 274 295 308
318 314 290 277 261 251 245 264 283 294 299 246 234 225 233 241 249 239 237 222 202 205 200 200 206 205 205 200 199 196 204 212 218 222 228 242 256 267 263 260 278 289 298 305
312 307 310 298 276 266 259 258 264 269 282 243 231 229 233 240 240 240 237 227 214 196 201 214 211 208 209 208 205 208 211 212 218 226 238 250 261 264 263 269 281 286 294 305
Height
5692 5687 5684 5681 5677 5673 5670 5666 5663 5660 5654 5648 5651 5652 5662 5668 5677 5685 5698 5713 5727 5736 5743 5750 5760 5767 5774 5791 5806 5815 5823 5829 5835 5841 5847 5851 5858 5863 5864 5865 5865 5865 5865 5865
5690 5683 5678 5676 5672 5668 5658 5655 5655 5651 5644 5638 5643 5640 5648 5653 5665 5674 5685 5702 5715 5725 5731 5741 5752 5761 5763 5783 5795 5806 5814 5821 5827 5834 5839 5844 5850 5855 5858 5860 5861 5860 5860 5861
5684 5680 5676 5669 5664 5659 5654 5647 5642 5638 5635 5630 5628 5625 5631 5642 5653 5665 5675 5689 5707 5713 5721 5732 5743 5748 5764 5776 5784 5796 5800 5810 5817 5824 5831 5835 5842 5850 5853 5855 5855 5856 5853 5855
5680 5676 5669 5665 5659 5653 5650 5640 5634 5630 5625 5621 5618 5606 5615 5628 5641 5651 5666 5678 5695 5703 5712 5725 5735 5746 5759 5770 5775 5781 5792 5798 5807 5818 5824 5832 5839 5844 5845 5847 5848 5847 5848 5848
5678 5672 5668 5663 5656 5651 5646 5636 5629 5621 5615 5608 5607 5595 5604 5615 5631 5647 5661 5672 5687 5697 5706 5715 5732 5746 5750 5754 5763 5766 5777 5788 5792 5809 5817 5822 5827 5835 5837 5840 5841 5842 5843 5843
5673 5667 5665 5661 5654 5649 5643 5633 5624 5617 5607 5599 5594 5589 5593 5609 5632 5645 5658 5671 5685 5691 5700 5708 5724 5738 5740 5750 5758 5771 5776 5741 5760 5785 5807 5817 5823 5828 5832 5833 5834 5835 5835 5835
5674 5667 5662 5657 5653 5648 5642 5632 5621 5615 5606 5598 5592 5594 5605 5616 5629 5639 5651 5667 5682 5690 5700 5703 5716 5726 5731 5744 5757 5765 5773 5774 5777 5786 5803 5811 5817 5821 5823 5826 5827 5829 5829 5827
5673 5666 5659 5654 5654 5648 5641 5635 5628 5618 5609 5605 5602 5606 5614 5622 5628 5637 5648 5658 5669 5682 5692 5700 5713 5723 5725 5740 5753 5767 5769 5778 5779 5787 5797 5805 5808 5811 5814 5817 5820 5820 5819 5820
5670 5665 5655 5652 5652 5649 5642 5637 5632 5622 5614 5611 5611 5614 5621 5625 5630 5635 5642 5651 5664 5678 5683 5696 5708 5718 5726 5741 5755 5764 5771 5777 5779 5783 5793 5799 5801 5804 5807 5812 5812 5811 5813 5815
5672 5666 5660 5655 5652 5649 5645 5640 5634 5626 5619 5617 5618 5619 5620 5621 5624 5629 5635 5647 5660 5671 5679 5694 5701 5712 5725 5740 5751 5759 5766 5771 5779 5782 5787 5793 5797 5800 5803 5805 5804 5805 5808 5810
5670 5664 5660 5657 5655 5649 5645 5640 5636 5629 5624 5622 5622 5622 5620 5620 5625 5629 5634 5643 5655 5666 5676 5688 5698 5709 5722 5731 5739 5750 5758 5765 5772 5779 5783 5788 5791 5794 5797 5798 5796 5800 5801 5803
5671 5665 5660 5659 5657 5651 5647 5643 5638 5632 5628 5624 5621 5624 5621 5625 5629 5632 5637 5644 5654 5664 5673 5682 5694 5705 5719 5727 5734 5744 5754 5760 5764 5770 5776 5780 5785 5789 5791 5791 5789 5794 5796 5797
5672 5668 5664 5660 5656 5652 5645 5642 5639 5635 5631 5627 5623 5624 5625 5627 5631 5636 5641 5648 5657 5663 5670 5680 5688 5698 5707 5717 5725 5733 5741 5747 5755 5763 5768 5774 5779 5782 5783 5783 5785 5787 5789 5792
5674 5668 5665 5663 5658 5654 5648 5645 5642 5638 5634 5627 5621 5622 5627 5630 5633 5639 5645 5649 5656 5662 5667 5676 5683 5691 5702 5709 5719 5729 5734 5746 5746 5755 5764 5768 5770 5773 5772 5773 5776 5780 5784 5785
5678 5672 5666 5662 5657 5655 5651 5648 5644 5642 5637 5629 5624 5621 5628 5631 5634 5638 5642 5647 5651 5656 5665 5670 5680 5691 5699 5708 5716 5725 5732 5742 5729 5743 5756 5754 5758 5762 5764 5768 5771 5776 5777 5779
5677 5672 5666 5663 5658 5657 5655 5649 5646 5644 5639 5631 5627 5625 5630 5633 5636 5638 5641 5647 5650 5655 5662 5669 5679 5690 5697 5706 5715 5725 5725 5729 5723 5745 5742 5730 5746 5751 5758 5760 5766 5767 5771 5774
5674 5671 5669 5664 5660 5657 5659 5655 5652 5650 5643 5638 5631 5634 5634 5636 5637 5638 5639 5646 5652 5659 5665 5673 5681 5687 5695 5701 5708 5714 5719 5722 5724 5716 5721 5721 5736 5743 5750 5756 5759 5764 5767 5768
5671 5668 5666 5664 5660 5658 5657 5656 5654 5653 5649 5644 5639 5639 5640 5636 5639 5642 5644 5647 5652 5660 5669 5674 5674 5674 5692 5698 5705 5711 5715 5717 5727 5721 5724 5728 5731 5738 5748 5752 5756 5760 5761 5761
5669 5665 5664 5662 5659 5657 5655 5653 5654 5653 5654 5649 5647 5643 5642 5641 5643 5648 5649 5653 5656 5661 5670 5672 5673 5672 5686 5687 5694 5708 5710 5710 5719 5718 5715 5721 5733 5739 5746 5750 5752 5753 5751 5752
5667 5665 5663 5660 5658 5657 5656 5654 5654 5655 5655 5652 5649 5648 5646 5646 5647 5649 5648 5653 5657 5662 5668 5670 5674 5678 5680 5687 5690 5700 5706 5707 5711 5708 5716 5725 5734 5741 5744 5745 5744 5745 5748 5748
5665 5664 5663 5660 5656 5656 5656 5654 5653 5656 5658 5654 5650 5650 5649 5651 5651 5654 5655 5656 5657 5661 5662 5672 5674 5677 5679 5686 5694 5703 5696 5703 5708 5715 5723 5731 5737 5738 5738 5739 5742 5743 5743 5743
5663 5663 5661 5660 5657 5655 5651 5650 5653 5655 5654 5654 5652 5650 5650 5651 5652 5653 5656 5655 5657 5662 5660 5668 5672 5673 5677 5684 5689 5690 5690 5700 5706 5713 5721 5727 5729 5731 5733 5736 5737 5737 5737 5735
5660 5659 5658 5658 5656 5653 5651 5651 5652 5652 5653 5654 5653 5651 5650 5650 5652 5652 5655 5659 5660 5661 5663 5669 5675 5677 5676 5683 5688 5693 5696 5701 5706 5712 5717 5720 5724 5727 5731 5732 5731 5730 5727 5729
5655 5654 5654 5654 5653 5652 5651 5648 5648 5650 5651 5650 5651 5652 5651 5649 5651 5653 5655 5657 5661 5666 5668 5671 5675 5678 5681 5686 5689 5692 5696 5701 5707 5712 5716 5719 5724 5726 5725 5727 5724 5724 5722 5722
5651 5650 5649 5649 5649 5648 5648 5648 5646 5647 5648 5648 5649 5650 5651 5650 5649 5652 5655 5658 5660 5663 5667 5671 5674 5677 5680 5684 5688 5691 5696 5701 5706 5709 5713 5717 5719 5720 5721 5720 5719 5719 5718 5717
5647 5645 5644 5643 5642 5642 5643 5644 5643 5643 5642 5644 5645 5646 5648 5649 5649 5649 5653 5657 5659 5662 5665 5668 5672 5676 5680 5684 5687 5691 5695 5699 5702 5704 5707 5710 5712 5712 5713 5714 5714 5714 5715 5714